DELTA 1 DEB

Satellite information

Favourite Embed

Satellite Type and Status

DEBRISIN ORBIT

Key statistics

Satellite DELTA 1 DEB at a glance.

Uptime

19400

Days in orbit

Revolutions

≈ 14.0

Per day

Orbit

SSO

Sun Synchronous Orbit

Inclination

97.7

Latest

Satellite identification and parameters

Extended collection of information and parameters for DELTA 1 DEB.

Object identification

Identified? True

Debris? True

Object name: DELTA 1 DEB

International designator: 1972-058CN

Object number (NORAD): 7958

Object ID (CCSDS): 7958

Country: UNITED STATES OF AMERICA (US)

Current information (Y/N): Y

RCS size: MEDIUM

Orbital parameters

Period: 102.684 minutes

Inclination: 97.687 deg

SMA: 7263.775 km

Apoapsis: 1102.154 km

Periapsis: 669.125 km

RAAN: 128.4328 deg

Eccentricy: 0.02980743

Argument of periapsis: 232.0556 deg

Mean anomaly: 125.3337 deg

Mean motion: 14.02359 rev/day

Mean motion (dot): 0.00001408 rev/day2

B* drag term: 0.00063713892 1/REarth

Two-line elements (TLE)

Creation date: Sept. 3, 2025, 2:21 a.m.

Reference frame: TEME

Reference center: EARTH

Epoch: Sept. 2, 2025, 2:54 p.m. UTC

TLE line 0: 0 DELTA 1 DEB

TLE line 1: 1 07958U 72058CN 25245.62130573 .00001408 00000-0 63714-3 0 9993

TLE line 2: 2 07958 97.6870 128.4328 0298074 232.0556 125.3337 14.02359000665958

Live tracking on map

Real-time ground track for satellite DELTA 1 DEB.

In-orbit conjunctions

A list of the most updated potential collisions computed for object DELTA 1 DEB.

Target Orbit TCA Probability of collision Miss distance Type
COSMOS 2251 DEB LEO 2025-08-02 07:17:24 0.001526321 7.0 (m) DEBRIS
COSMOS 1104 LEO 2025-07-28 04:17:30 0.0001501019 262.0 (m) PAYLOAD
FENGYUN 1C DEB SSO 2025-07-05 23:10:12 0.001316498 34.0 (m) DEBRIS
COSMOS 926 LEO 2024-11-03 16:22:29 0.0001204026 901.0 (m) PAYLOAD

Associated space launch

Earth observation satellite

DELTA 1 DEB was lifted into orbit during the mission ‘Delta 0900 | Landsat 1’, on board a Delta 0900 space rocket.

The launch took place on July 23, 1972, 6:06 p.m. from Space Launch Complex 2W.

For more information about the launch, click the button.

Launch to space Delta 0900 | Landsat 1
Delta 0900 | Landsat 1

Agency: N/A

Status: Launch Successful

Launch date: July 23, 1972, 6:06 p.m. UTC

Rocket: Delta 0900

Launch pad: Space Launch Complex 2W

Location: Vandenberg SFB, CA, USA

...

Latest news about this satellite

There are no fresh news available about this satellite. Check back as we update our databases every day.


Newsletter sign-up

Weekly statistics, charts and insights to help you stay on top of the space industry.